Regional Weather Roundup
Issued by NWS New Orleans/Baton Rouge, LA

Home | Current Version | Previous Version | Text Only | Print | Product List | Glossary On
Versions: 1 2 3 4 5 6 7 8 9 10 11 12 13 14 15 16 17 18 19 20 21 22 23 24 25 26 27 28 29 30 31 32 33 34 35 36 37 38 39 40 41 42 43 44 45 46 47 48 49 50
000
ASUS44 KLIX 062110
RWRLIX
NEW ORLEANS REGIONAL WEATHER ROUNDUP
NATIONAL WEATHER SERVICE NEW ORLEANS LA
300 PM CST FRI MAR 06 2015

NOTE: "FAIR" INDICATES FEW OR NO CLOUDS BELOW 12,000 FEET WITH NO
      SIGNIFICANT WEATHER AND/OR OBSTRUCTIONS TO VISIBILITY.
      SKY/WX - SKY CONDITION AND SIGNIFICANT WEATHER.
      TMP - AIR TEMPERATURE.     DP    - DEWPOINT TEMPERATURE.
      RH  - RELATIVE HUMIDITY.   PRES  - PRESSURE.
      HI  - HEAT INDEX.          WCI   - WIND CHILL INDEX.

*  THESE STATIONS ARE NOT NWS OR FAA STATIONS AND ARE NOT UNDER
   NWS QUALITY CONTROL.

LAZ038-040-048-061>063-065>067-069-062200-
SOUTHEAST LOUISIANA

CITY           SKY/WX    TMP DP  RH WIND       PRES   REMARKS
N.O. AUDUBON     N/A     52  20  28 MISG        N/A
N.O. INTL ARPT CLOUDY    51  18  27 N13       30.42F
N.O. LAKEFRONT MOSUNNY   54  19  25 N9        30.43F
SLIDELL        MOSUNNY   54  15  21 N14       30.40F
BATON ROUGE    MOSUNNY   53  13  20 N8        30.43F
BOOTHVILLE     PTSUNNY   48  28  46 N9G20     30.40F
BELLE CHASSE   PTSUNNY   51  16  24 N10       30.41F
BOGALUSA*        N/A     55  10  16 NE9       30.42F
GALLIANO*      PTCLDY    54  21  27 N10       30.42S
NEW ROADS*       N/A     53  14  21 N8        30.44F
GONZALES*        N/A     54  13  19 N9        30.42F
HAMMOND*       SUNNY     57   9  14 N9        30.43F
HOUMA*         SUNNY     52  21  30 N16       30.42F
PORT FOURCHON*   N/A     50  23  34 NE14G20   30.43F

$$

MSZ070-080>082-062200-
SOUTHERN MISSISSIPPI

CITY           SKY/WX    TMP DP  RH WIND       PRES   REMARKS
MCCOMB         MOSUNNY   52  11  19 N14       30.43F
GULFPORT       PTSUNNY   55  14  19 NE14G22   30.39F
BILOXI         PTSUNNY   55  17  22 N14G21    30.38F
PASCAGOULA     MOSUNNY   55  15  20 N14G25    30.39S
STENNIS ARPT*  SUNNY     54   1  12 N9G20     30.40F

$$

COASTAL OBSERVATIONS
LAKE AND NEARSHORE STATIONS

STATION/POSITION TIME  TEMP    WIND        PRES    WAVE
                       AIR SEA DIR/SP/G            HT/PER
                 (UTC) (F)     (DEG/KT/KT) (MB)    (FT/S)
PASCAGOULA       2100   53      10/ 12/ 15 1028.4
WAVELAND YACHT   2100   51 52   10/ 11/ 16 1029.1
GRAND ISLE       2100   49 56   20/ 13/ 17 1029.8
SOUTHWEST PASS   2100   48 43   20/ 18/ 22 1029.3
NEW CANAL        2100   48      30/ 11/ 13 1030.3
SHELL BEACH      2100   49 53   20/ 12/ 15 1029.6

OFFSHORE STATIONS

STATION/POSITION TIME  TEMP    WIND        PRES    WAVE
                       AIR SEA DIR/SP/G            HT/PER
                 (UTC) (F)     (DEG/KT/KT) (MB)    (FT/S)
64 S DAUPHIN ISL 2000   49 66   20/ 19/ 23 1028.5    5/ 6

$$




USA.gov is the U.S. government's official web portal to all federal, state and local government web resources and services.